| time (UTC) | temp F | wind direction | speed MPH | gust MPH | rain 1hr in | rain 24hr in | rain mn in | humidity % | barometer mb |
| 20260905091541 | 53 | 337 | 0.0 | 0.0 | 0.00 | 0.02 | 0.00 | 95 | 1017.2 |
| 20260905090042 | 53 | 337 | 0.0 | 0.0 | 0.00 | 0.02 | 0.00 | 95 | 1017.2 |
| 20260905083041 | 53 | 337 | 0.0 | 0.0 | 0.00 | 0.02 | 0.00 | 94 | 1017.2 |
| 20260905081539 | 53 | 337 | 0.0 | 0.0 | 0.00 | 0.02 | 0.00 | 94 | 1017.0 |
| 20260905080042 | 53 | 337 | 0.0 | 0.0 | 0.00 | 0.02 | 0.00 | 94 | 1016.9 |
| 20260905074543 | 53 | 337 | 0.0 | 0.0 | 0.00 | 0.02 | 0.00 | 94 | 1016.8 |
| 20260905073109 | 54 | 337 | 0.0 | 0.0 | 0.00 | 0.02 | 0.00 | 94 | 1016.7 |
| 20260905071532 | 54 | 337 | 0.0 | 0.0 | 0.00 | 0.02 | 0.00 | 94 | 1016.5 |
| 20260905063035 | 54 | 337 | 0.0 | 0.0 | 0.00 | 0.02 | 0.02 | 93 | 1016.3 |
| 20260905061532 | 54 | 337 | 0.0 | 2.0 | 0.00 | 0.02 | 0.02 | 93 | 1016.3 |
| 20260905060032 | 54 | 337 | 0.0 | 0.0 | 0.00 | 0.02 | 0.02 | 93 | 1016.3 |
| 20260905054535 | 54 | 337 | 0.0 | 0.0 | 0.00 | 0.02 | 0.02 | 92 | 1016.1 |
| 20260905053036 | 54 | 337 | 0.0 | 0.0 | 0.00 | 0.02 | 0.02 | 92 | 1016.0 |
| 20260905051531 | 54 | 337 | 0.0 | 0.0 | 0.00 | 0.02 | 0.02 | 92 | 1016.1 |
| 20260905050030 | 54 | 337 | 0.0 | 0.0 | 0.00 | 0.02 | 0.02 | 91 | 1016.0 |
| 20260905044642 | 53 | 337 | 0.0 | 0.0 | 0.00 | 0.02 | 0.02 | 90 | 1016.0 |
| 20260905043030 | 53 | 337 | 0.0 | 0.0 | 0.00 | 0.02 | 0.02 | 89 | 1015.8 |
| 20260905041536 | 53 | 337 | 0.0 | 0.0 | 0.00 | 0.02 | 0.02 | 88 | 1015.8 |
| 20260905040108 | 54 | 337 | 0.0 | 0.0 | 0.00 | 0.02 | 0.02 | 87 | 1015.7 |
| 20260905034537 | 54 | 337 | 0.0 | 0.0 | 0.00 | 0.02 | 0.02 | 85 | 1015.6 |
| 20260905033226 | 0 | 0 | 0.0 | 0.0 | 0.00 | 0.02 | 0.02 | 100 | |
| 20260905030108 | 57 | 337 | 0.0 | 0.0 | 0.00 | 0.02 | 0.02 | 81 | 1015.2 |
| 20260905024536 | 57 | 337 | 0.0 | 0.0 | 0.00 | 0.02 | 0.02 | 80 | 1015.0 |
| 20260905021537 | 58 | 337 | 0.0 | 0.0 | 0.00 | 0.02 | 0.02 | 75 | 1014.9 |
| 20260905020033 | 62 | 340 | 0.0 | 3.0 | 0.00 | 0.02 | 0.02 | 69 | 1014.7 |
| 20260905011606 | 63 | 302 | 0.0 | 5.0 | 0.00 | 0.02 | 0.02 | 67 | 1014.3 |
| 20260905010030 | 64 | 234 | 1.0 | 5.0 | 0.00 | 0.02 | 0.02 | 68 | 1014.4 |
| 20260905004611 | 64 | 265 | 0.0 | 3.0 | 0.00 | 0.02 | 0.02 | 68 | 1014.4 |
| 20260905003038 | 63 | 314 | 1.0 | 7.0 | 0.00 | 0.02 | 0.02 | 70 | 1014.2 |
| 20260905001535 | 63 | 292 | 0.0 | 1.0 | 0.00 | 0.02 | 0.02 | 70 | 1014.2 |
| 20260905000034 | 64 | 252 | 0.0 | 1.0 | 0.00 | 0.02 | 0.02 | 68 | 1014.0 |
| 20260904234531 | 64 | 202 | 0.0 | 2.0 | 0.00 | 0.02 | 0.02 | 68 | 1014.0 |
| 20260904231537 | 64 | 193 | 1.0 | 3.0 | 0.00 | 0.02 | 0.02 | 70 | 1014.0 |
| 20260904224536 | 65 | 168 | 0.0 | 2.0 | 0.00 | 0.02 | 0.02 | 65 | 1014.0 |
| 20260904223031 | 67 | 160 | 0.0 | 3.0 | 0.00 | 0.02 | 0.02 | 64 | 1013.8 |
| 20260904221608 | 67 | 186 | 0.0 | 3.0 | 0.00 | 0.02 | 0.02 | 64 | 1013.7 |
| 20260904214613 | 65 | 169 | 0.0 | 3.0 | 0.00 | 0.02 | 0.02 | 70 | 1013.7 |
| 20260904213032 | 64 | 157 | 0.0 | 1.0 | 0.00 | 0.02 | 0.02 | 69 | 1013.7 |
| 20260904211536 | 64 | 159 | 0.0 | 2.0 | 0.00 | 0.02 | 0.02 | 66 | 1013.6 |
| 20260904204534 | 66 | 189 | 0.0 | 2.0 | 0.00 | 0.02 | 0.02 | 63 | 1013.6 |
| 20260904203034 | 66 | 215 | 1.0 | 4.0 | 0.00 | 0.02 | 0.02 | 64 | 1013.6 |
| 20260904201534 | 65 | 316 | 0.0 | 3.0 | 0.00 | 0.02 | 0.02 | 65 | 1013.8 |
| 20260904200035 | 64 | 323 | 0.0 | 3.0 | 0.00 | 0.02 | 0.02 | 66 | 1013.9 |
| 20260904194536 | 63 | 11 | 0.0 | 1.0 | 0.00 | 0.02 | 0.02 | 68 | 1014.1 |
| 20260904193106 | 63 | 337 | 1.0 | 4.0 | 0.00 | 0.03 | 0.02 | 66 | 1014.2 |
| 20260904191531 | 64 | 337 | 1.0 | 5.0 | 0.00 | 0.03 | 0.02 | 68 | 1014.3 |
| 20260904183031 | 59 | 67 | 0.0 | 2.0 | 0.00 | 0.05 | 0.02 | 82 | 1014.6 |
| 20260904180042 | 58 | 202 | 0.0 | 1.0 | 0.00 | 0.05 | 0.02 | 83 | 1014.5 |
| 20260904180035 | 58 | 202 | 0.0 | 1.0 | 0.00 | 0.05 | 0.02 | 82 | 1014.6 |
| 20260904173032 | 59 | 209 | 0.0 | 3.0 | 0.00 | 0.06 | 0.02 | 83 | 1014.5 |
| 20260904170034 | 58 | 172 | 1.0 | 3.0 | 0.00 | 0.06 | 0.02 | 88 | 1014.5 |
| 20260904164529 | 57 | 193 | 0.0 | 3.0 | 0.00 | 0.06 | 0.02 | 90 | 1014.4 |
| 20260904163032 | 56 | 157 | 0.0 | 2.0 | 0.00 | 0.06 | 0.02 | 92 | 1014.5 |
| 20260904151533 | 52 | 202 | 0.0 | 0.0 | 0.00 | 0.09 | 0.02 | 97 | 1014.2 |
| 20260904150034 | 51 | 202 | 0.0 | 0.0 | 0.00 | 0.09 | 0.02 | 97 | 1014.1 |
| 20260904144610 | 51 | 202 | 0.0 | 0.0 | 0.00 | 0.09 | 0.02 | 97 | 1014.0 |
| 20260904143033 | 50 | 202 | 0.0 | 0.0 | 0.00 | 0.09 | 0.02 | 97 | 1013.9 |
| 20260904141531 | 50 | 202 | 0.0 | 0.0 | 0.00 | 0.09 | 0.02 | 97 | 1013.7 |
| 20260904140036 | 50 | 202 | 0.0 | 0.0 | 0.00 | 0.09 | 0.02 | 97 | 1013.5 |
| 20260904134617 | 50 | 202 | 0.0 | 0.0 | 0.00 | 0.09 | 0.02 | 97 | 1013.4 |
| 20260904131535 | 50 | 202 | 0.0 | 0.0 | 0.00 | 0.09 | 0.02 | 97 | 1013.1 |
| 20260904130036 | 50 | 202 | 0.0 | 0.0 | 0.00 | 0.10 | 0.02 | 96 | 1012.8 |
| 20260904120036 | 50 | 202 | 0.0 | 0.0 | 0.00 | 0.10 | 0.02 | 96 | 1012.5 |
| 20260904113030 | 50 | 202 | 0.0 | 0.0 | 0.02 | 0.10 | 0.02 | 96 | 1012.5 |
| 20260904111530 | 50 | 202 | 0.0 | 0.0 | 0.02 | 0.12 | 0.02 | 96 | 1012.4 |
| 20260904104536 | 50 | 202 | 0.0 | 0.0 | 0.00 | 0.10 | 0.00 | 96 | 1012.0 |
| 20260904101536 | 50 | 202 | 0.0 | 0.0 | 0.00 | 0.11 | 0.00 | 96 | 1011.7 |
| 20260904094537 | 49 | 202 | 0.0 | 0.0 | 0.00 | 0.11 | 0.00 | 96 | 1011.6 |
| 20260904093034 | 49 | 202 | 0.0 | 0.0 | 0.00 | 0.11 | 0.00 | 95 | 1011.6 |